SVFLIR Weather Reports


Display with metric or nautical units.
time (UTC)temp
F
wind
direction
speed
MPH
gust
MPH
rain 1hr
in
rain 24hr
in
rain mn
in
humidity
%
barometer
mb
20260508222627 93 284 10.0 19.0 0.00 0.00 0.00 100 1009.4
20260508222126 93 265 8.0 17.0 0.00 0.00 0.00 100 1009.4
20260508221625 93 272 9.0 17.0 0.00 0.00 0.00 100 1009.4
20260508221124 92 253 11.0 18.0 0.00 0.00 0.00 100 1009.4
20260508220623 93 285 14.0 19.0 0.00 0.00 0.00 100 1009.4
20260508220123 93 247 10.0 19.0 0.00 0.00 0.00 100 1009.4
20260508215623 93 275 13.0 19.0 0.00 0.00 0.00 100 1009.4
20260508215122 92 296 9.0 19.0 0.00 0.00 0.00 100 1009.4
20260508214842 92 261 6.0 18.0 0.00 0.00 0.00 100 1009.4
20260508214121 92 255 10.0 19.0 0.00 0.00 0.00 100 1009.4
20260508213620 92 230 12.0 19.0 0.00 0.00 0.00 100 1009.4
20260508213119 92 279 13.0 20.0 0.00 0.00 0.00 100 1009.4
20260508212619 92 296 12.0 20.0 0.00 0.00 0.00 100 1009.4
20260508212119 92 216 9.0 19.0 0.00 0.00 0.00 100 1009.4
20260508211835 92 243 7.0 14.0 0.00 0.00 0.00 100 1009.4
20260508211337 91 236 9.0 15.0 0.00 0.00 0.00 100 1009.4
20260508210618 87 277 10.0 18.0 0.00 0.00 0.00 100 1009.4
20260508210116 88 289 8.0 18.0 0.00 0.00 0.00 100 1009.4
20260508205615 88 286 12.0 17.0 0.00 0.00 0.00 100 1009.4
20260508205115 90 233 9.0 16.0 0.00 0.00 0.00 100 1009.4
20260508204614 88 195 10.0 16.0 0.00 0.00 0.00 100 1009.4
20260508204113 88 264 10.0 16.0 0.00 0.00 0.00 100 1009.4
20260508203833 87 227 7.0 16.0 0.00 0.00 0.00 100 1009.4
20260508203112 88 275 10.0 16.0 0.00 0.00 0.00 100 1009.4
20260508202612 89 262 7.0 13.0 0.00 0.00 0.00 100 1009.4
20260508202112 90 244 7.0 13.0 0.00 0.00 0.00 100 1009.4
20260508201843 90 260 6.0 15.0 0.00 0.00 0.00 100 1009.4
20260508201110 87 98 1.0 15.0 0.00 0.00 0.00 100 1009.4
20260508200608 90 247 10.0 14.0 0.00 0.00 0.00 100 1009.4
20260508200332 87 196 4.0 13.0 0.00 0.00 0.00 100 1009.4
20260508195606 89 278 7.0 12.0 0.00 0.00 0.00 100 1009.4
20260508195106 88 251 4.0 10.0 0.00 0.00 0.00 100 1009.4
20260508194605 87 216 6.0 11.0 0.00 0.00 0.00 100 1009.4
20260508194104 91 215 5.0 12.0 0.00 0.00 0.00 100 1009.4
20260508193823 91 196 6.0 13.0 0.00 0.00 0.00 100 1009.4
20260508193102 90 206 5.0 13.0 0.00 0.00 0.00 100 1009.4
20260508192603 90 250 1.0 11.0 0.00 0.00 0.00 100 1009.4
20260508192102 92 265 5.0 11.0 0.00 0.00 0.00 100 1009.4
20260508191601 92 232 6.0 11.0 0.00 0.00 0.00 100 1009.4
20260508191326 84 192 5.0 13.0 0.00 0.00 0.00 100 1009.4
20260508190600 90 135 1.0 13.0 0.00 0.00 0.00 100 1009.4
20260508190059 92 248 5.0 11.0 0.00 0.00 0.00 100 1009.4
20260508185559 92 175 5.0 7.0 0.00 0.00 0.00 100 1009.4
20260508185058 90 236 2.0 8.0 0.00 0.00 0.00 100 1009.4
20260508184558 91 251 4.0 8.0 0.00 0.00 0.00 100 1009.4
20260508184057 92 261 6.0 10.0 0.00 0.00 0.00 100 1009.4
20260508183556 90 185 0.0 10.0 0.00 0.00 0.00 100 1009.4
20260508183053 90 230 7.0 10.0 0.00 0.00 0.00 100 1009.4
20260508182811 89 248 2.0 10.0 0.00 0.00 0.00 100 1009.4
20260508182048 88 188 4.0 10.0 0.00 0.00 0.00 100 1009.4
20260508181547 88 180 7.0 10.0 0.00 0.00 0.00 100 1009.4
20260508181048 88 177 6.0 9.0 0.00 0.00 0.00 100 1009.4
20260508180042 87 208 2.0 11.0 0.00 0.00 0.00 100 1009.4
20260508175541 87 215 6.0 11.0 0.00 0.00 0.00 100 1009.4
20260508175040 87 216 3.0 10.0 0.00 0.00 0.00 100 1009.4
20260508174540 87 168 2.0 10.0 0.00 0.00 0.00 100 1009.4
20260508174259 86 189 6.0 12.0 0.00 0.00 0.00 100 1009.4
20260508173539 86 227 4.0 12.0 0.00 0.00 0.00 100 1009.4
20260508173038 86 205 4.0 11.0 0.00 0.00 0.00 100 1009.4
20260508172537 84 199 4.0 9.0 0.00 0.00 0.00 100 1009.4
20260508172037 84 187 4.0 10.0 0.00 0.00 0.00 100 1009.4
20260508171537 85 257 6.0 10.0 0.00 0.00 0.00 100 1009.4
20260508171036 84 219 6.0 10.0 0.00 0.00 0.00 100 1009.4
20260508170535 83 202 7.0 10.0 0.00 0.00 0.00 100 1009.4
20260508170035 83 220 6.0 10.0 0.00 0.00 0.00 100 1009.4
20260508165534 82 161 2.0 10.0 0.00 0.00 0.00 100 1009.4
20260508165033 83 151 4.0 10.0 0.00 0.00 0.00 100 1009.4
20260508164532 83 189 2.0 10.0 0.00 0.00 0.00 100 1009.4
20260508164032 81 203 6.0 10.0 0.00 0.00 0.00 100 1009.4
20260508163532 81 163 6.0 10.0 0.00 0.00 0.00 100 1009.4
20260508163031 82 230 5.0 10.0 0.00 0.00 0.00 100 1009.4
20260508162530 81 212 7.0 10.0 0.00 0.00 0.00 100 1009.4
20260508162030 81 202 4.0 9.0 0.00 0.00 0.00 100 1009.4
20260508161529 80 226 5.0 10.0 0.00 0.00 0.00 100 1009.4
20260508161028 80 210 5.0 10.0 0.00 0.00 0.00 100 1009.4
20260508160528 80 195 6.0 10.0 0.00 0.00 0.00 100 1009.4
20260508155744 79 182 4.0 11.0 0.00 0.00 0.00 100 1009.4
20260508155245 79 161 8.0 11.0 0.00 0.00 0.00 100 1009.4
20260508154526 79 202 9.0 11.0 0.00 0.00 0.00 100 1009.4
20260508154025 79 198 8.0 10.0 0.00 0.00 0.00 100 1009.4
20260508153524 79 230 6.0 10.0 0.00 0.00 0.00 100 1009.4
20260508153024 78 150 6.0 10.0 0.00 0.00 0.00 100 1009.4
20260508152745 77 194 6.0 10.0 0.00 0.00 0.00 100 1009.4
20260508152241 76 185 6.0 10.0 0.00 0.00 0.00 100 1009.4
20260508151522 76 184 6.0 9.0 0.00 0.00 0.00 100 1009.4
20260508151022 75 188 6.0 9.0 0.00 0.00 0.00 100 1009.4
20260508150521 75 135 7.0 11.0 0.00 0.00 0.00 100 1009.4
20260508150243 74 209 6.0 11.0 0.00 0.00 0.00 100 1009.4
20260508145519 73 178 4.0 11.0 0.00 0.00 0.00 100 1009.4
20260508145019 72 170 6.0 11.0 0.00 0.00 0.00 100 1009.4
20260508144518 74 160 8.0 11.0 0.00 0.00 0.00 100 1009.4
20260508144017 73 217 6.0 10.0 0.00 0.00 0.00 100 1009.4
20260508143740 71 177 6.0 9.0 0.00 0.00 0.00 100 1009.4
20260508143017 72 191 5.0 6.0 0.00 0.00 0.00 100 1009.4
20260508142516 72 113 0.0 5.0 0.00 0.00 0.00 100 1009.4
20260508142014 71 135 2.0 4.0 0.00 0.00 0.00 100 1009.4
20260508141512 71 52 0.0 0.0 0.00 0.00 0.00 100 1009.4
20260508140946 68 52 0.0 0.0 0.00 0.00 0.00 100 1009.4
20260508140445 66 52 0.0 0.0 0.00 0.00 0.00 100 1009.4
20260508135937 65 52 0.0 4.0 0.00 0.00 0.00 100 1009.4
20260508135436 67 52 0.0 4.0 0.00 0.00 0.00 100 1009.4
20260508134925 65 33 0.0 2.0 0.00 0.00 0.00 100 1009.4
20260508134402 66 33 0.0 0.0 0.00 0.00 0.00 100 1009.4
20260508133849 65 33 0.0 0.0 0.00 0.00 0.00 100 1009.4
20260508133346 64 33 0.0 0.0 0.00 0.00 0.00 100 1009.4
20260508132846 60 33 0.0 4.0 0.00 0.00 0.00 100 1009.4
20260508132331 61 33 0.0 4.0 0.00 0.00 0.00 100 1009.4
20260508131828 59 59 3.0 4.0 0.00 0.00 0.00 100 1009.4
20260508131328 57 77 3.0 4.0 0.00 0.00 0.00 100 1009.4
20260508130827 56 12 0.0 0.0 0.00 0.00 0.00 100 1009.4
20260508130325 55 12 0.0 0.0 0.00 0.00 0.00 100 1009.4
20260508125815 55 12 0.0 0.0 0.00 0.00 0.00 100 1009.4
20260508125315 55 12 0.0 0.0 0.00 0.00 0.00 100 1009.4
20260508124812 56 12 0.0 0.0 0.00 0.00 0.00 100 1009.4
20260508124309 56 12 0.0 0.0 0.00 0.00 0.00 100 1009.4
20260508123805 53 12 0.0 0.0 0.00 0.00 0.00 100 1009.4
20260508123302 55 12 0.0 0.0 0.00 0.00 0.00 100 1009.4
20260508122754 53 12 0.0 0.0 0.00 0.00 0.00 100 1009.4
20260508122248 55 12 0.0 0.0 0.00 0.00 0.00 100 1009.4
20260508121959 56 12 0.0 0.0 0.00 0.00 0.00 100 1009.4
20260508121211 55 12 0.0 0.0 0.00 0.00 0.00 100 1009.4
20260508120704 56 12 0.0 0.0 0.00 0.00 0.00 100 1009.4
20260508120204 56 12 0.0 2.0 0.00 0.00 0.00 100 1009.4
20260508115649 54 12 0.0 4.0 0.00 0.00 0.00 100 1009.4
20260508115148 53 12 0.0 4.0 0.00 0.00 0.00 100 1009.4
20260508114646 54 18 0.0 2.0 0.00 0.00 0.00 100 1009.4
20260508114143 54 153 0.0 0.0 0.00 0.00 0.00 100 1009.4
20260508113853 55 153 0.0 0.0 0.00 0.00 0.00 100 1009.4
20260508113123 55 153 0.0 0.0 0.00 0.00 0.00 100 1009.4
20260508112615 56 153 0.0 0.0 0.00 0.00 0.00 100 1009.4
20260508112100 57 153 0.0 0.0 0.00 0.00 0.00 100 1009.4
20260508111554 57 153 0.0 0.0 0.00 0.00 0.00 100 1009.4
20260508111041 59 153 0.0 0.0 0.00 0.00 0.00 100 1009.4
20260508110531 60 153 0.0 0.0 0.00 0.00 0.00 100 1009.4
20260508110031 58 153 0.0 0.0 0.00 0.00 0.00 100 1009.4
20260508104943 60 153 0.0 0.0 0.00 0.00 0.00 100 1009.4
20260508104442 64 153 0.0 7.0 0.00 0.00 0.00 100 1009.4
20260508104154 65 153 0.0 7.0 0.00 0.00 0.00 100 1009.4
20260508103425 66 195 3.0 7.0 0.00 0.00 0.00 100 1009.4
20260508102924 65 212 4.0 7.0 0.00 0.00 0.00 100 1009.4
20260508102423 65 215 3.0 8.0 0.00 0.00 0.00 100 1009.4
20260508102143 65 210 4.0 8.0 0.00 0.00 0.00 100 1009.4
20260508101423 65 177 4.0 6.0 0.00 0.00 0.00 100 1009.4
20260508100922 65 234 3.0 6.0 0.00 0.00 0.00 100 1009.4
20260508100421 65 165 0.0 4.0 0.00 0.00 0.00 100 1009.4
20260508095914 65 165 0.0 5.0 0.00 0.00 0.00 100 1009.4
20260508095414 65 219 3.0 5.0 0.00 0.00 0.00 100 1009.4
20260508094914 65 236 3.0 5.0 0.00 0.00 0.00 100 1009.4
20260508094411 64 248 0.0 3.0 0.00 0.00 0.00 100 1009.4
20260508094127 63 241 0.0 2.0 0.00 0.00 0.00 100 1009.4
20260508093408 62 358 0.0 0.0 0.00 0.00 0.00 100 1009.4
20260508092840 62 358 0.0 0.0 0.00 0.00 0.00 100 1009.4
20260508092325 60 358 0.0 0.0 0.00 0.00 0.00 100 1009.4
20260508091820 59 358 0.0 0.0 0.00 0.00 0.00 100 1009.4
20260508091306 58 358 0.0 0.0 0.00 0.00 0.00 100 1009.4
20260508091001 58 358 0.0 0.0 0.00 0.00 0.00 100 1009.4
20260508090224 58 358 0.0 0.0 0.00 0.00 0.00 100 1009.4
20260508085717 59 358 0.0 0.0 0.00 0.00 0.00 100 1009.4
20260508085204 59 358 0.0 0.0 0.00 0.00 0.00 100 1009.4
20260508084638 59 358 0.0 0.0 0.00 0.00 0.00 100 1009.4
20260508084123 59 358 0.0 0.0 0.00 0.00 0.00 100 1009.4
20260508083616 60 358 0.0 0.0 0.00 0.00 0.00 100 1009.4
20260508083331 61 358 0.0 0.0 0.00 0.00 0.00 100 1009.4
20260508082555 61 358 0.0 0.0 0.00 0.00 0.00 100 1009.4
20260508082050 62 358 0.0 0.0 0.00 0.00 0.00 100 1009.4
20260508081523 62 358 0.0 0.0 0.00 0.00 0.00 100 1009.4
20260508081002 62 358 0.0 0.0 0.00 0.00 0.00 100 1009.4
20260508080719 62 358 0.0 0.0 0.00 0.00 0.00 100 1009.4
20260508075955 62 358 0.0 0.0 0.00 0.00 0.00 100 1009.4
20260508075454 61 358 0.0 0.0 0.00 0.00 0.00 100 1009.4
20260508074947 62 358 0.0 0.0 0.00 0.00 0.00 100 1009.4
20260508074432 62 358 0.0 0.0 0.00 0.00 0.00 100 1009.4
20260508073923 62 358 0.0 0.0 0.00 0.00 0.00 100 1009.4
20260508073413 64 358 0.0 6.0 0.00 0.00 0.00 100 1009.4
20260508072858 65 358 0.0 6.0 0.00 0.00 0.00 100 1009.4
20260508072355 65 305 0.0 6.0 0.00 0.00 0.00 100 1009.4
20260508071853 65 97 4.0 6.0 0.00 0.00 0.00 100 1009.4
20260508071352 64 345 0.0 0.0 0.00 0.00 0.00 100 1009.4
20260508070831 63 345 0.0 0.0 0.00 0.00 0.00 100 1009.4
20260508070304 63 345 0.0 0.0 0.00 0.00 0.00 100 1009.4
20260508065738 63 345 0.0 0.0 0.00 0.00 0.00 100 1009.4
20260508065208 63 345 0.0 3.0 0.00 0.00 0.00 100 1009.4
20260508064908 64 345 2.0 3.0 0.00 0.00 0.00 100 1009.4
20260508064138 63 272 0.0 0.0 0.00 0.00 0.00 100 1009.4
20260508063859 63 272 0.0 0.0 0.00 0.00 0.00 100 1009.4
20260508063121 64 272 0.0 0.0 0.00 0.00 0.00 100 1009.4
20260508062620 64 272 0.0 0.0 0.00 0.00 0.00 100 1009.4
20260508062117 64 272 0.0 0.0 0.00 0.00 0.00 100 1009.4
20260508061616 65 272 0.0 0.0 0.00 0.00 0.00 100 1009.4
20260508061054 65 272 0.0 0.0 0.00 0.00 0.00 100 1009.4
20260508060810 66 272 0.0 0.0 0.00 0.00 0.00 100 1009.4
20260508060047 66 272 0.0 0.0 0.00 0.00 0.00 100 1009.4
20260508055544 66 272 0.0 0.0 0.00 0.00 0.00 100 1009.4
20260508055039 66 272 0.0 0.0 0.00 0.00 0.00 100 1009.4
20260508054539 66 272 0.0 0.0 0.00 0.00 0.00 100 1009.4
20260508054032 67 272 0.0 0.0 0.00 0.00 0.00 100 1009.4
20260508053515 67 272 0.0 0.0 0.00 0.00 0.00 100 1009.4
20260508053007 68 272 0.0 0.0 0.00 0.00 0.00 100 1009.4
20260508052457 67 272 0.0 0.0 0.00 0.00 0.00 100 1009.4
20260508051942 68 272 0.0 0.0 0.00 0.00 0.00 100 1009.4
20260508051436 70 272 0.0 0.0 0.00 0.00 0.00 100 1009.4
20260508050924 70 272 0.0 0.0 0.00 0.00 0.00 100 1009.4
20260508050416 71 272 0.0 0.0 0.00 0.00 0.00 100 1009.4
20260508050140 72 272 0.0 0.0 0.00 0.00 0.00 100 1009.4
20260508045411 73 272 0.0 0.0 0.00 0.00 0.00 100 1009.4
20260508044904 76 272 0.0 0.0 0.00 0.00 0.00 100 1009.4
20260508044335 78 272 0.0 4.0 0.00 0.00 0.00 100 1009.4
20260508044034 79 272 0.0 4.0 0.00 0.00 0.00 100 1009.4
20260508043312 81 250 3.0 6.0 0.00 0.00 0.00 100 1009.4
20260508042811 81 250 4.0 9.0 0.00 0.00 0.00 100 1009.4
20260508042308 81 257 5.0 9.0 0.00 0.00 0.00 100 1009.4
20260508041809 81 257 6.0 8.0 0.00 0.00 0.00 100 1009.4
20260508041307 81 240 5.0 8.0 0.00 0.00 0.00 100 1009.4
20260508040806 82 285 5.0 10.0 0.00 0.00 0.00 100 1009.4
20260508040532 82 267 6.0 10.0 0.00 0.00 0.00 100 1009.4
20260508035806 82 267 7.0 9.0 0.00 0.00 0.00 100 1009.4
20260508035306 83 265 6.0 9.0 0.00 0.00 0.00 100 1009.4
20260508034804 83 261 6.0 9.0 0.00 0.00 0.00 100 1009.4
20260508034304 82 274 5.0 9.0 0.00 0.00 0.00 100 1009.4
20260508033803 83 261 7.0 9.0 0.00 0.00 0.00 100 1009.4
20260508033302 83 270 7.0 9.0 0.00 0.00 0.00 100 1009.4
20260508032301 83 254 8.0 10.0 0.00 0.00 0.00 100 1009.4
20260508031801 83 267 8.0 11.0 0.00 0.00 0.00 100 1009.4
20260508031300 83 258 7.0 12.0 0.00 0.00 0.00 100 1009.4
20260508030759 85 241 9.0 12.0 0.00 0.00 0.00 100 1009.4
20260508030258 85 272 9.0 12.0 0.00 0.00 0.00 100 1009.4
20260508030024 84 253 7.0 12.0 0.00 0.00 0.00 100 1009.4
20260508025526 85 241 7.0 14.0 0.00 0.00 0.00 100 1009.4
20260508024757 85 257 8.0 14.0 0.00 0.00 0.00 100 1009.4
20260508024256 85 254 10.0 13.0 0.00 0.00 0.00 100 1009.4
20260508023755 85 250 9.0 14.0 0.00 0.00 0.00 100 1009.4
20260508023256 86 255 9.0 14.0 0.00 0.00 0.00 100 1009.4
20260508022755 85 246 9.0 12.0 0.00 0.00 0.00 100 1009.4
20260508022254 86 262 8.0 12.0 0.00 0.00 0.00 100 1009.4
20260508021754 85 250 8.0 13.0 0.00 0.00 0.00 100 1009.4
20260508021518 86 262 8.0 13.0 0.00 0.00 0.00 100 1009.4
20260508020752 86 265 9.0 16.0 0.00 0.00 0.00 100 1009.4
20260508020251 86 247 8.0 16.0 0.00 0.00 0.00 100 1009.4
20260508015751 87 264 10.0 13.0 0.00 0.00 0.00 100 1009.4
20260508015250 87 246 10.0 16.0 0.00 0.00 0.00 100 1009.4
20260508015008 87 255 10.0 18.0 0.00 0.00 0.00 100 1009.4
20260508014508 87 226 11.0 18.0 0.00 0.00 0.00 100 1009.4
20260508013749 88 243 10.0 14.0 0.00 0.00 0.00 100 1009.4
20260508013248 88 250 10.0 16.0 0.00 0.00 0.00 100 1009.4
20260508012748 88 237 11.0 19.0 0.00 0.00 0.00 100 1009.4
20260508012247 88 232 13.0 19.0 0.00 0.00 0.00 100 1009.4
20260508011746 89 222 13.0 18.0 0.00 0.00 0.00 100 1009.4
20260508011246 89 229 12.0 17.0 0.00 0.00 0.00 100 1009.4
20260508010745 89 257 10.0 18.0 0.00 0.00 0.00 100 1009.4
20260508010507 90 265 14.0 18.0 0.00 0.00 0.00 100 1009.4
20260508005744 90 233 11.0 15.0 0.00 0.00 0.00 100 1009.4
20260508005241 89 277 5.0 10.0 0.00 0.00 0.00 100 1009.4
20260508004740 90 262 6.0 13.0 0.00 0.00 0.00 100 1009.4
20260508004241 89 277 9.0 16.0 0.00 0.00 0.00 100 1009.4
20260508003740 90 230 10.0 16.0 0.00 0.00 0.00 100 1009.4
20260508003239 90 258 9.0 13.0 0.00 0.00 0.00 100 1009.4
20260508002738 90 261 6.0 17.0 0.00 0.00 0.00 100 1009.4
20260508001737 90 233 13.0 21.0 0.00 0.00 0.00 100 1009.4
20260508001236 88 240 14.0 21.0 0.00 0.00 0.00 100 1009.4
20260508000737 88 244 11.0 17.0 0.00 0.00 0.00 100 1009.4
20260508000236 89 219 8.0 16.0 0.00 0.00 0.00 100 1009.4
20260507235735 89 253 5.0 18.0 0.00 0.00 0.00 100 1009.4
20260507235234 89 230 13.0 18.0 0.00 0.00 0.00 100 1009.4
20260507234733 89 222 8.0 15.0 0.00 0.00 0.00 100 1009.4
20260507234234 88 272 12.0 17.0 0.00 0.00 0.00 100 1009.4
20260507233953 87 298 4.0 17.0 0.00 0.00 0.00 100 1009.4
20260507233231 87 260 10.0 16.0 0.00 0.00 0.00 100 1009.4
20260507232732 88 257 10.0 16.0 0.00 0.00 0.00 100 1009.4
20260507232449 88 254 13.0 17.0 0.00 0.00 0.00 100 1009.4
20260507231730 89 261 12.0 19.0 0.00 0.00 0.00 100 1009.4
20260507230729 88 250 15.0 17.0 0.00 0.00 0.00 100 1009.4
20260507230228 88 258 6.0 17.0 0.00 0.00 0.00 100 1009.4
20260507225727 88 267 9.0 14.0 0.00 0.00 0.00 100 1009.4
20260507225228 87 261 6.0 15.0 0.00 0.00 0.00 100 1009.4
20260507224727 88 268 9.0 17.0 0.00 0.00 0.00 100 1009.4
20260507224226 87 270 6.0 20.0 0.00 0.00 0.00 100 1009.4
20260507223726 88 271 9.0 20.0 0.00 0.00 0.00 100 1009.4
20260507223225 89 268 13.0 22.0 0.00 0.00 0.00 100 1009.4
20260507222724 89 271 13.0 22.0 0.00 0.00 0.00 100 1009.4